Regional Weather Roundup
Issued by NWS Albany, NY

Home | Current Version | Previous Version | Text Only | Print | Product List | Glossary On
Versions: 1 2 3 4 5 6 7 8 9 10 11 12 13 14 15 16 17 18 19 20 21 22 23 24 25 26 27 28 29 30 31 32 33 34 35 36 37 38 39 40 41 42 43 44 45 46 47 48 49 50
000
ASUS41 KALY 311010
RWRALY

NEW YORK STATE HOURLY WEATHER ROUNDUP
NATIONAL WEATHER SERVICE ALBANY NY
600 AM EDT SUN AUG 31 2014

NOTE: "FAIR" INDICATES FEW OR NO CLOUDS BELOW 12,000 FEET WITH NO
SIGNIFICANT WEATHER AND/OR NO OBSTRUCTIONS TO VISIBILITY.

NYZ032-033-038>043-046>054-057>066-NYZ062>081-311100-
EAST


CITY           SKY/WX    TMP DP  RH WIND       PRES   REMARKS
ALBANY         MOCLDY    70  64  81 S8        30.04F
GLENS FALLS    CLOUDY    67  63  87 SW5       30.04S
POUGHKEEPSIE   CLOUDY    72  63  73 CALM      30.08F
NEWBURGH       CLOUDY    70  63  78 CALM      30.12
MONTGOMERY     CLOUDY    69  64  84 CALM      30.10S
WHITE PLAINS   MOCLDY    71  65  81 CALM      30.12S
ISLIP          CLOUDY    73  67  81 SW7       30.11F
NEW YORK CITY  CLOUDY    74  64  71 S9        30.10F
CENTRAL PARK   CLOUDY    74  64  71 MISG      30.14S
$$

NYZ005>009-017-018-044>046-055-056-311100-
CENTRAL


CITY           SKY/WX    TMP DP  RH WIND       PRES   REMARKS
FULTON         LGT RAIN  72  68  87 S10       29.97S
SYRACUSE       LGT RAIN  74  68  81 SW9       29.98S
ROME           CLOUDY    71  66  84 E5        30.02S
ELMIRA         CLOUDY    71  68  90 CALM      30.03S
BINGHAMTON     CLOUDY    69  65  86 S6        30.08S
MONTICELLO     CLOUDY    66  63  88 S3        30.13F
$$

NYZ026>034-041>043-311100-
NORTH


CITY           SKY/WX    TMP DP  RH WIND       PRES   REMARKS
WATERTOWN      MOCLDY    74  65  73 S12G21    29.92F
FORT DRUM      NOT AVBL
MASSENA        PTCLDY    69  67  93 S5        29.89F
SARANAC LAKE   CLOUDY    66  63  90 SW7       29.99S
PLATTSBURGH    CLOUDY    67  64  90 S5        29.94F
$$

NYZ001>004-010>016-019>021-311100-
WEST


CITY           SKY/WX    TMP DP  RH WIND       PRES   REMARKS
NIAGARA FALLS  CLOUDY    74  68  81 SW15G22   29.93S
BUFFALO        CLOUDY    71  68  90 S9        29.95S
DUNKIRK        CLOUDY    72  68  87 S9G22     29.96F
JAMESTOWN      CLOUDY    68  64  88 S8        30.04R
WELLSVILLE     CLOUDY    69  66  90 S8        30.09S
ROCHESTER      LGT RAIN  72  69  90 SW8       29.97R
PENN YAN       LGT RAIN  71  68  90 S3        30.03S FOG
$$

             KEY
       WCI = WIND CHILL INDEX
       VSB = VISIBILITY
       HX  = HEAT INDEX
$$


USA.gov is the U.S. government's official web portal to all federal, state and local government web resources and services.